Voltar ao catálogo

SL-8 DEB

AtivoLEO
NORAD 22025·DEBRIS·🇷🇺 Russia

Lançado Feb 12, 1991 de Plesetsk Cosmodrome

Loading…

Próximas Passagens (próximas 24 horas)

TLE

AtualizadoSource: Space-Track

Época: Sep 13, 2026, 16:35 UTC

1 22025U 91009CJ  26256.69126725  .00000003  00000-0  15644-3 0  9995
2 22025  73.9433 347.6174 0143193 239.9931 273.6159 12.31725095596245

Acompanhe SL-8 DEB em tempo real com AllMySat

Download on the App Store